| time (UTC) | temp C | wind direction | speed KPH | gust KPH | rain 1hr cm | rain 24hr cm | rain mn cm | humidity % | barometer mb |
| 20260507230004 | 15 | 22 | 8.0 | 12.9 | 0.00 | 0.46 | 0.00 | 78 | 1013.0 |
| 20260507225003 | 16 | 26 | 4.8 | 12.9 | 0.00 | 0.46 | 0.00 | 77 | 1013.2 |
| 20260507224003 | 15 | 50 | 4.8 | 9.7 | 0.00 | 0.46 | 0.00 | 78 | 1013.4 |
| 20260507223003 | 15 | 42 | 6.4 | 12.9 | 0.00 | 0.46 | 0.00 | 78 | 1013.4 |
| 20260507222004 | 16 | 32 | 8.0 | 12.9 | 0.00 | 0.46 | 0.00 | 77 | 1013.4 |
| 20260507221003 | 16 | 33 | 6.4 | 12.9 | 0.00 | 0.46 | 0.00 | 77 | 1013.4 |
| 20260507220010 | 16 | 28 | 6.4 | 11.3 | 0.00 | 0.46 | 0.00 | 76 | 1013.4 |
| 20260507215003 | 16 | 39 | 6.4 | 14.5 | 0.00 | 0.48 | 0.46 | 77 | 1013.6 |
| 20260507214003 | 17 | 5 | 6.4 | 11.3 | 0.00 | 0.51 | 0.46 | 73 | 1013.7 |
| 20260507213004 | 17 | 358 | 4.8 | 11.3 | 0.00 | 0.51 | 0.46 | 73 | 1013.8 |
| 20260507212215 | 17 | 350 | 4.8 | 8.0 | 0.00 | 0.53 | 0.46 | 73 | 1013.9 |
| 20260507211003 | 17 | 11 | 4.8 | 8.0 | 0.00 | 0.56 | 0.46 | 73 | 1013.9 |
| 20260507210004 | 17 | 5 | 3.2 | 11.3 | 0.00 | 0.58 | 0.46 | 72 | 1013.9 |
| 20260507205004 | 17 | 352 | 3.2 | 4.8 | 0.00 | 0.61 | 0.46 | 70 | 1013.9 |
| 20260507204003 | 17 | 330 | 3.2 | 6.4 | 0.00 | 0.61 | 0.46 | 70 | 1014.0 |
| 20260507203215 | 18 | 327 | 3.2 | 6.4 | 0.00 | 0.61 | 0.46 | 69 | 1014.0 |
| 20260507202004 | 19 | 354 | 3.2 | 6.4 | 0.00 | 0.61 | 0.46 | 63 | 1014.0 |
| 20260507201003 | 19 | 10 | 4.8 | 8.0 | 0.00 | 0.61 | 0.46 | 63 | 1014.0 |
| 20260507200004 | 20 | 31 | 4.8 | 6.4 | 0.00 | 0.61 | 0.46 | 62 | 1014.0 |
| 20260507195003 | 20 | 24 | 3.2 | 6.4 | 0.00 | 0.61 | 0.46 | 61 | 1014.0 |
| 20260507194003 | 20 | 27 | 3.2 | 8.0 | 0.00 | 0.61 | 0.46 | 62 | 1014.0 |
| 20260507193008 | 20 | 39 | 3.2 | 6.4 | 0.00 | 0.61 | 0.46 | 61 | 1014.0 |
| 20260507192003 | 20 | 49 | 3.2 | 4.8 | 0.00 | 0.61 | 0.46 | 61 | 1014.0 |
| 20260507191217 | 20 | 54 | 3.2 | 4.8 | 0.00 | 0.61 | 0.46 | 60 | 1013.9 |
| 20260507190005 | 20 | 27 | 3.2 | 6.4 | 0.00 | 0.61 | 0.46 | 60 | 1013.9 |
| 20260507185214 | 20 | 9 | 1.6 | 6.4 | 0.00 | 0.61 | 0.46 | 60 | 1013.8 |
| 20260507184215 | 21 | 325 | 1.6 | 3.2 | 0.00 | 0.61 | 0.46 | 59 | 1013.9 |
| 20260507183216 | 21 | 259 | 1.6 | 3.2 | 0.00 | 0.61 | 0.46 | 58 | 1013.9 |
| 20260507182004 | 21 | 326 | 1.6 | 6.4 | 0.00 | 0.61 | 0.46 | 55 | 1014.0 |
| 20260507181003 | 21 | 327 | 1.6 | 6.4 | 0.00 | 0.61 | 0.46 | 53 | 1014.0 |
| 20260507180214 | 21 | 316 | 1.6 | 3.2 | 0.00 | 0.61 | 0.46 | 52 | 1014.0 |
| 20260507175003 | 22 | 325 | 1.6 | 6.4 | 0.00 | 0.61 | 0.46 | 50 | 1014.1 |
| 20260507174004 | 22 | 317 | 1.6 | 3.2 | 0.00 | 0.66 | 0.46 | 48 | 1014.0 |
| 20260507173217 | 22 | 326 | 1.6 | 4.8 | 0.00 | 0.69 | 0.46 | 47 | 1014.0 |
| 20260507172004 | 22 | 326 | 1.6 | 9.7 | 0.00 | 0.69 | 0.46 | 45 | 1014.1 |
| 20260507171003 | 22 | 330 | 1.6 | 4.8 | 0.00 | 0.69 | 0.46 | 44 | 1013.9 |
| 20260507170215 | 22 | 352 | 1.6 | 4.8 | 0.00 | 0.69 | 0.46 | 43 | 1013.9 |
| 20260507165215 | 22 | 352 | 3.2 | 6.4 | 0.00 | 0.69 | 0.46 | 44 | 1013.9 |
| 20260507164003 | 22 | 28 | 6.4 | 9.7 | 0.00 | 0.69 | 0.46 | 44 | 1013.9 |
| 20260507163003 | 22 | 33 | 3.2 | 9.7 | 0.00 | 0.69 | 0.46 | 45 | 1013.8 |
| 20260507162003 | 23 | 36 | 4.8 | 9.7 | 0.00 | 0.69 | 0.46 | 49 | 1013.8 |
| 20260507161003 | 23 | 30 | 3.2 | 9.7 | 0.00 | 0.69 | 0.46 | 48 | 1013.9 |
| 20260507160003 | 23 | 36 | 1.6 | 11.3 | 0.00 | 0.69 | 0.46 | 51 | 1013.8 |
| 20260507155003 | 23 | 26 | 3.2 | 8.0 | 0.00 | 0.69 | 0.46 | 52 | 1013.7 |
| 20260507154004 | 23 | 46 | 4.8 | 11.3 | 0.00 | 0.69 | 0.46 | 52 | 1013.8 |
| 20260507153004 | 23 | 334 | 4.8 | 14.5 | 0.00 | 0.69 | 0.46 | 52 | 1013.8 |
| 20260507152214 | 23 | 336 | 4.8 | 11.3 | 0.00 | 0.69 | 0.46 | 52 | 1013.9 |
| 20260507151004 | 23 | 336 | 4.8 | 11.3 | 0.00 | 0.69 | 0.46 | 52 | 1014.0 |
| 20260507150004 | 23 | 27 | 4.8 | 11.3 | 0.00 | 0.69 | 0.46 | 53 | 1014.0 |
| 20260507145217 | 23 | 19 | 4.8 | 11.3 | 0.00 | 0.69 | 0.46 | 54 | 1014.1 |
| 20260507144003 | 23 | 28 | 3.2 | 12.9 | 0.00 | 0.69 | 0.46 | 54 | 1014.1 |
| 20260507143003 | 23 | 256 | 3.2 | 8.0 | 0.00 | 0.69 | 0.46 | 52 | 1014.2 |
| 20260507142004 | 23 | 286 | 4.8 | 11.3 | 0.00 | 0.69 | 0.46 | 51 | 1014.3 |
| 20260507141003 | 23 | 275 | 6.4 | 16.1 | 0.00 | 0.69 | 0.46 | 52 | 1014.6 |
| 20260507140004 | 23 | 273 | 3.2 | 17.7 | 0.00 | 0.69 | 0.46 | 53 | 1014.7 |
| 20260507135003 | 24 | 302 | 3.2 | 9.7 | 0.00 | 0.69 | 0.46 | 52 | 1014.8 |
| 20260507134213 | 24 | 334 | 3.2 | 9.7 | 0.00 | 0.69 | 0.46 | 52 | 1014.9 |
| 20260507133004 | 23 | 270 | 3.2 | 8.0 | 0.00 | 0.69 | 0.46 | 49 | 1015.1 |
| 20260507132004 | 22 | 272 | 4.8 | 9.7 | 0.00 | 0.69 | 0.46 | 55 | 1015.2 |
| 20260507131003 | 22 | 255 | 6.4 | 12.9 | 0.00 | 0.69 | 0.46 | 53 | 1015.2 |
| 20260507130217 | 22 | 276 | 4.8 | 16.1 | 0.00 | 0.69 | 0.46 | 56 | 1015.4 |
| 20260507125003 | 23 | 290 | 3.2 | 6.4 | 0.00 | 0.69 | 0.46 | 59 | 1015.6 |
| 20260507124214 | 22 | 286 | 4.8 | 9.7 | 0.00 | 0.69 | 0.46 | 60 | 1015.6 |
| 20260507123004 | 22 | 294 | 4.8 | 9.7 | 0.00 | 0.69 | 0.46 | 63 | 1015.7 |
| 20260507122004 | 22 | 258 | 1.6 | 9.7 | 0.00 | 0.69 | 0.46 | 63 | 1015.7 |
| 20260507121008 | 22 | 339 | 1.6 | 6.4 | 0.00 | 0.69 | 0.46 | 63 | 1015.8 |
| 20260507120004 | 21 | 312 | 3.2 | 4.8 | 0.00 | 0.69 | 0.46 | 62 | 1015.8 |
| 20260507115004 | 21 | 274 | 3.2 | 6.4 | 0.00 | 0.69 | 0.46 | 62 | 1015.8 |
| 20260507114003 | 21 | 295 | 3.2 | 8.0 | 0.00 | 0.69 | 0.46 | 64 | 1015.9 |
| 20260507113004 | 21 | 266 | 1.6 | 8.0 | 0.00 | 0.69 | 0.46 | 65 | 1016.0 |
| 20260507112003 | 21 | 290 | 1.6 | 8.0 | 0.00 | 0.69 | 0.46 | 66 | 1016.1 |
| 20260507111003 | 21 | 274 | 3.2 | 6.4 | 0.00 | 0.69 | 0.46 | 67 | 1016.1 |
| 20260507110004 | 21 | 207 | 3.2 | 6.4 | 0.00 | 0.69 | 0.46 | 67 | 1016.1 |
| 20260507105003 | 20 | 296 | 1.6 | 6.4 | 0.00 | 0.69 | 0.46 | 68 | 1016.4 |
| 20260507104215 | 20 | 288 | 1.6 | 6.4 | 0.00 | 0.69 | 0.46 | 68 | 1016.3 |
| 20260507103003 | 21 | 273 | 1.6 | 6.4 | 0.00 | 0.69 | 0.46 | 69 | 1016.4 |
| 20260507102003 | 20 | 256 | 3.2 | 8.0 | 0.00 | 0.69 | 0.46 | 70 | 1016.6 |
| 20260507101213 | 20 | 248 | 3.2 | 6.4 | 0.00 | 0.69 | 0.46 | 70 | 1016.6 |
| 20260507100004 | 20 | 254 | 1.6 | 8.0 | 0.00 | 0.69 | 0.46 | 67 | 1016.8 |
| 20260507095004 | 20 | 306 | 3.2 | 6.4 | 0.00 | 0.69 | 0.46 | 70 | 1016.7 |
| 20260507094216 | 20 | 326 | 3.2 | 6.4 | 0.00 | 0.69 | 0.46 | 71 | 1016.8 |
| 20260507093216 | 19 | 60 | 4.8 | 9.7 | 0.00 | 0.69 | 0.46 | 72 | 1016.7 |
| 20260507092004 | 19 | 32 | 3.2 | 12.9 | 0.00 | 0.69 | 0.46 | 72 | 1016.7 |
| 20260507091004 | 20 | 33 | 3.2 | 9.7 | 0.00 | 0.69 | 0.46 | 73 | 1016.6 |
| 20260507090004 | 18 | 18 | 4.8 | 8.0 | 0.00 | 0.69 | 0.46 | 74 | 1016.6 |
| 20260507085003 | 19 | 347 | 4.8 | 11.3 | 0.00 | 0.69 | 0.46 | 73 | 1016.7 |
| 20260507084004 | 20 | 41 | 1.6 | 11.3 | 0.00 | 0.69 | 0.46 | 71 | 1016.8 |
| 20260507083217 | 20 | 12 | 1.6 | 6.4 | 0.00 | 0.69 | 0.46 | 71 | 1016.8 |
| 20260507082004 | 20 | 257 | 1.6 | 4.8 | 0.00 | 0.69 | 0.46 | 74 | 1016.8 |
| 20260507081003 | 18 | 92 | 1.6 | 3.2 | 0.00 | 0.69 | 0.46 | 75 | 1017.0 |
| 20260507080004 | 18 | 60 | 1.6 | 4.8 | 0.00 | 0.69 | 0.46 | 77 | 1017.0 |
| 20260507075003 | 18 | 67 | 3.2 | 6.4 | 0.00 | 0.69 | 0.46 | 79 | 1017.0 |
| 20260507074004 | 17 | 53 | 3.2 | 6.4 | 0.00 | 0.69 | 0.46 | 81 | 1016.9 |
| 20260507073004 | 17 | 29 | 1.6 | 8.0 | 0.00 | 0.69 | 0.46 | 83 | 1017.0 |
| 20260507072214 | 16 | 344 | 1.6 | 8.0 | 0.00 | 0.69 | 0.46 | 85 | 1017.1 |
| 20260507071003 | 16 | 339 | 3.2 | 4.8 | 0.00 | 0.69 | 0.46 | 89 | 1017.1 |
| 20260507070216 | 16 | 341 | 3.2 | 6.4 | 0.00 | 0.69 | 0.46 | 91 | 1017.0 |
| 20260507065004 | 16 | 337 | 1.6 | 4.8 | 0.00 | 0.69 | 0.46 | 92 | 1017.0 |
| 20260507064004 | 16 | 44 | 3.2 | 6.4 | 0.00 | 0.69 | 0.46 | 95 | 1016.9 |
| 20260507063004 | 15 | 44 | 1.6 | 6.4 | 0.00 | 0.69 | 0.46 | 95 | 1016.8 |
| 20260507062003 | 15 | 33 | 1.6 | 4.8 | 0.00 | 0.69 | 0.46 | 96 | 1016.7 |
| 20260507061003 | 15 | 36 | 1.6 | 6.4 | 0.00 | 0.69 | 0.46 | 96 | 1016.6 |
| 20260507060004 | 14 | 66 | 3.2 | 6.4 | 0.00 | 0.69 | 0.46 | 96 | 1016.7 |
| 20260507055217 | 14 | 57 | 3.2 | 8.0 | 0.00 | 0.71 | 0.46 | 96 | 1016.7 |
| 20260507054003 | 13 | 54 | 1.6 | 6.4 | 0.00 | 0.74 | 0.46 | 96 | 1016.7 |
| 20260507053214 | 13 | 64 | 3.2 | 4.8 | 0.00 | 0.76 | 0.46 | 96 | 1016.6 |
| 20260507052004 | 13 | 80 | 3.2 | 4.8 | 0.00 | 0.76 | 0.46 | 96 | 1016.6 |
| 20260507051004 | 13 | 72 | 3.2 | 4.8 | 0.00 | 0.76 | 0.46 | 96 | 1016.6 |
| 20260507050005 | 13 | 62 | 3.2 | 4.8 | 0.00 | 0.76 | 0.46 | 96 | 1016.4 |
| 20260507045213 | 13 | 57 | 3.2 | 6.4 | 0.00 | 0.76 | 0.46 | 96 | 1016.4 |
| 20260507044003 | 13 | 59 | 0.0 | 4.8 | 0.00 | 0.76 | 0.46 | 96 | 1016.3 |
| 20260507043004 | 13 | 0 | 0.0 | 0.0 | 0.00 | 0.76 | 0.46 | 96 | 1016.6 |
| 20260507042004 | 13 | 75 | 0.0 | 1.6 | 0.00 | 0.76 | 0.46 | 96 | 1016.6 |
| 20260507041004 | 13 | 77 | 1.6 | 3.2 | 0.00 | 0.76 | 0.46 | 96 | 1016.4 |
| 20260507040004 | 13 | 301 | 1.6 | 4.8 | 0.00 | 0.76 | 0.46 | 96 | 1016.3 |
| 20260507035213 | 13 | 281 | 1.6 | 4.8 | 0.00 | 0.76 | 0.46 | 96 | 1016.3 |
| 20260507034004 | 13 | 113 | 0.0 | 3.2 | 0.03 | 0.76 | 0.46 | 96 | 1016.2 |
| 20260507033004 | 13 | 64 | 1.6 | 3.2 | 0.03 | 0.76 | 0.46 | 96 | 1016.3 |
| 20260507032003 | 13 | 77 | 0.0 | 4.8 | 0.03 | 0.76 | 0.46 | 96 | 1016.2 |
| 20260507031003 | 13 | 82 | 0.0 | 1.6 | 0.03 | 0.76 | 0.46 | 96 | 1016.2 |
| 20260507030003 | 13 | 116 | 3.2 | 6.4 | 0.05 | 0.76 | 0.46 | 96 | 1016.3 |
| 20260507025214 | 13 | 127 | 3.2 | 6.4 | 0.05 | 0.76 | 0.46 | 96 | 1016.2 |
| 20260507024003 | 13 | 109 | 4.8 | 9.7 | 0.03 | 0.74 | 0.43 | 96 | 1016.5 |
| 20260507023003 | 13 | 114 | 4.8 | 11.3 | 0.03 | 0.74 | 0.43 | 95 | 1016.4 |
| 20260507022003 | 13 | 133 | 4.8 | 9.7 | 0.05 | 0.74 | 0.43 | 95 | 1016.3 |
| 20260507021003 | 13 | 109 | 4.8 | 11.3 | 0.05 | 0.74 | 0.43 | 95 | 1016.3 |
| 20260507020214 | 13 | 82 | 3.2 | 8.0 | 0.03 | 0.71 | 0.43 | 95 | 1016.3 |
| 20260507015008 | 13 | 53 | 3.2 | 4.8 | 0.05 | 0.71 | 0.43 | 95 | 1016.4 |
| 20260507014003 | 13 | 51 | 3.2 | 4.8 | 0.05 | 0.71 | 0.43 | 95 | 1016.3 |
| 20260507013003 | 13 | 35 | 1.6 | 4.8 | 0.10 | 0.71 | 0.43 | 95 | 1016.3 |
| 20260507012212 | 13 | 53 | 1.6 | 3.2 | 0.18 | 0.71 | 0.41 | 95 | 1016.3 |
| 20260507010004 | 13 | 246 | 0.0 | 1.6 | 0.33 | 0.71 | 0.41 | 95 | 1016.4 |
| 20260507005003 | 13 | 243 | 1.6 | 3.2 | 0.38 | 0.71 | 0.38 | 95 | 1016.5 |
| 20260507004003 | 13 | 242 | 3.2 | 8.0 | 0.36 | 0.71 | 0.36 | 94 | 1016.5 |
| 20260507003004 | 13 | 256 | 6.4 | 9.7 | 0.33 | 0.66 | 0.33 | 93 | 1016.6 |
| 20260507002004 | 13 | 260 | 4.8 | 11.3 | 0.20 | 0.53 | 0.20 | 92 | 1016.4 |
| 20260507001003 | 14 | 257 | 6.4 | 9.7 | 0.13 | 0.46 | 0.13 | 91 | 1016.4 |
| 20260507000004 | 14 | 254 | 6.4 | 12.9 | 0.05 | 0.41 | 0.05 | 90 | 1016.4 |
| 20260506235003 | 14 | 256 | 4.8 | 8.0 | 0.00 | 0.33 | 0.00 | 89 | 1016.4 |
| 20260506234004 | 15 | 249 | 4.8 | 11.3 | 0.00 | 0.33 | 0.00 | 89 | 1016.4 |
| 20260506233004 | 15 | 256 | 4.8 | 9.7 | 0.00 | 0.33 | 0.00 | 88 | 1016.2 |
| 20260506232003 | 15 | 227 | 3.2 | 11.3 | 0.00 | 0.33 | 0.00 | 86 | 1016.2 |